EN

Hourly Weather Pannivka

Today, 8 March, Monday

Time Temperature Precipitation Wind Pressure Humidity
00:00 -4°C° 0 mm 7 mps 750 mmHg 62%
01:00 -4°C° 0 mm 7 mps 749 mmHg 64%
02:00 -4°C° 0 mm 7 mps 749 mmHg 66%
03:00 -4°C° 0 mm 7 mps 749 mmHg 68%
04:00 -4°C° 0 mm 6 mps 748 mmHg 71%
05:00 -4°C° 0 mm 6 mps 748 mmHg 74%
06:00 -3°C° 0 mm 7 mps 748 mmHg 73%
07:00 -3°C° 0 mm 7 mps 748 mmHg 72%
08:00 -2°C° 0 mm 7 mps 748 mmHg 71%
09:00 -1°C° 0 mm 7 mps 748 mmHg 65%
10:00 +2°C° 0 mm 7 mps 747 mmHg 60%
11:00 +2°C° 0 mm 8 mps 747 mmHg 55%
12:00 +2°C° 0 mm 8 mps 747 mmHg 56%
13:00 +2°C° 0 mm 8 mps 746 mmHg 57%
14:00 +2°C° 0 mm 8 mps 746 mmHg 58%
15:00 +2°C° 0 mm 7 mps 746 mmHg 65%
16:00 +2°C° 0 mm 7 mps 746 mmHg 72%
17:00 +1°C° 0 mm 6 mps 745 mmHg 79%
18:00 +1°C° 0 mm 6 mps 746 mmHg 80%
19:00 +1°C° 0 mm 5 mps 746 mmHg 81%
20:00 0°C° 0 mm 5 mps 746 mmHg 82%
21:00 0°C° 0 mm 4 mps 746 mmHg 81%
22:00 -1°C° 0 mm 4 mps 746 mmHg 81%
23:00 0°C° 0 mm 3 mps 746 mmHg 81%

Tomorrow, 9 March, Tuesday

Time Temperature Precipitation Wind Pressure Humidity
00:00 -1°C° 0 mm 3 mps 746 mmHg 83%
01:00 -1°C° 0 mm 3 mps 746 mmHg 86%
02:00 -2°C° 0 mm 2 mps 746 mmHg 88%
03:00 -2°C° 0 mm 2 mps 746 mmHg 88%
04:00 -2°C° 0 mm 3 mps 746 mmHg 88%
05:00 -2°C° 0 mm 3 mps 746 mmHg 89%
06:00 -2°C° 0 mm 3 mps 747 mmHg 83%
07:00 -2°C° 0 mm 4 mps 747 mmHg 77%
08:00 -2°C° 0 mm 4 mps 748 mmHg 71%
09:00 -1°C° 0 mm 5 mps 748 mmHg 64%
10:00 -1°C° 0 mm 5 mps 748 mmHg 58%
11:00 -1°C° 0 mm 6 mps 748 mmHg 51%
12:00 -1°C° 0 mm 6 mps 748 mmHg 50%
13:00 -1°C° 0 mm 6 mps 749 mmHg 48%
14:00 +1°C° 0 mm 6 mps 749 mmHg 47%
15:00 -1°C° 0 mm 6 mps 749 mmHg 49%
16:00 -2°C° 0 mm 6 mps 749 mmHg 50%
17:00 -1°C° 0 mm 5 mps 749 mmHg 52%
18:00 -2°C° 0 mm 5 mps 750 mmHg 55%
19:00 -3°C° 0 mm 4 mps 751 mmHg 59%
20:00 -4°C° 0 mm 4 mps 751 mmHg 63%
21:00 -4°C° 0 mm 4 mps 752 mmHg 61%
22:00 -4°C° 0 mm 3 mps 752 mmHg 60%
23:00 -4°C° 0 mm 3 mps 752 mmHg 59%

Day after tomorrow, 10 March, Wednesday

Time Temperature Precipitation Wind Pressure Humidity
00:00 -5°C° 0 mm 3 mps 753 mmHg 60%
01:00 -5°C° 0 mm 3 mps 753 mmHg 60%
02:00 -5°C° 0 mm 3 mps 753 mmHg 60%
03:00 -5°C° 0 mm 3 mps 753 mmHg 61%
04:00 -6°C° 0 mm 3 mps 754 mmHg 62%
05:00 -6°C° 0 mm 3 mps 754 mmHg 62%
06:00 -6°C° 0 mm 3 mps 754 mmHg 59%
07:00 -5°C° 0 mm 3 mps 754 mmHg 57%
08:00 -5°C° 0 mm 3 mps 754 mmHg 54%
09:00 -5°C° 0 mm 3 mps 754 mmHg 48%
10:00 -4°C° 0 mm 3 mps 754 mmHg 42%
11:00 -2°C° 0 mm 2 mps 754 mmHg 37%
12:00 -2°C° 0 mm 2 mps 754 mmHg 36%
13:00 -2°C° 0 mm 2 mps 754 mmHg 35%
14:00 -2°C° 0 mm 2 mps 754 mmHg 35%
15:00 -2°C° 0 mm 2 mps 753 mmHg 37%
16:00 -2°C° 0 mm 2 mps 753 mmHg 40%
17:00 -4°C° 0 mm 3 mps 753 mmHg 42%
18:00 -4°C° 0 mm 3 mps 753 mmHg 44%
19:00 -4°C° 0 mm 3 mps 753 mmHg 46%
20:00 -5°C° 0 mm 3 mps 753 mmHg 48%
21:00 -5°C° 0 mm 3 mps 753 mmHg 48%
22:00 -5°C° 0 mm 4 mps 753 mmHg 48%
23:00 -5°C° 0 mm 4 mps 753 mmHg 48%

11 March, Thursday

Time Temperature Precipitation Wind Pressure Humidity
00:00 -5°C° 0 mm 4 mps 753 mmHg 48%
01:00 -7°C° 0 mm 4 mps 753 mmHg 48%
02:00 -7°C° 0 mm 4 mps 753 mmHg 48%
03:00 -7°C° 0 mm 5 mps 753 mmHg 47%
04:00 -7°C° 0 mm 5 mps 753 mmHg 46%
05:00 -7°C° 0 mm 5 mps 753 mmHg 46%
06:00 -7°C° 0 mm 5 mps 754 mmHg 44%
07:00 -6°C° 0 mm 5 mps 754 mmHg 42%
08:00 -6°C° 0 mm 5 mps 754 mmHg 40%
09:00 -5°C° 0 mm 5 mps 755 mmHg 38%
10:00 -4°C° 0 mm 5 mps 755 mmHg 36%
11:00 -2°C° 0 mm 5 mps 755 mmHg 34%
12:00 -2°C° 0 mm 5 mps 755 mmHg 35%
13:00 -2°C° 0 mm 5 mps 755 mmHg 36%
14:00 -1°C° 0 mm 4 mps 755 mmHg 37%
15:00 -2°C° 0 mm 4 mps 756 mmHg 40%
16:00 -1°C° 0 mm 3 mps 756 mmHg 44%
17:00 -2°C° 0 mm 3 mps 756 mmHg 47%
18:00 -4°C° 0 mm 3 mps 756 mmHg 51%
19:00 -4°C° 0 mm 3 mps 757 mmHg 55%
20:00 -5°C° 0 mm 3 mps 757 mmHg 59%
21:00 -5°C° 0 mm 4 mps 757 mmHg 58%
22:00 -5°C° 0 mm 4 mps 757 mmHg 57%
23:00 -7°C° 0 mm 4 mps 757 mmHg 56%

12 March, Friday

Time Temperature Precipitation Wind Pressure Humidity
00:00 -7°C° 0 mm 4 mps 757 mmHg 56%
01:00 -7°C° 0 mm 4 mps 757 mmHg 56%
02:00 -7°C° 0 mm 4 mps 757 mmHg 56%
03:00 -7°C° 0 mm 4 mps 757 mmHg 55%
04:00 -8°C° 0 mm 4 mps 757 mmHg 54%
05:00 -8°C° 0 mm 4 mps 757 mmHg 53%
06:00 -8°C° 0 mm 5 mps 757 mmHg 51%
07:00 -8°C° 0 mm 5 mps 757 mmHg 49%
08:00 -7°C° 0 mm 5 mps 757 mmHg 47%
09:00 -7°C° 0 mm 5 mps 757 mmHg 45%
10:00 -6°C° 0 mm 6 mps 757 mmHg 42%
11:00 -5°C° 0 mm 6 mps 756 mmHg 39%
12:00 -5°C° 0 mm 6 mps 756 mmHg 40%
13:00 -4°C° 0 mm 6 mps 755 mmHg 40%
14:00 -4°C° 0 mm 5 mps 755 mmHg 41%
15:00 -4°C° 0 mm 6 mps 754 mmHg 42%
16:00 -4°C° 0 mm 6 mps 754 mmHg 44%
17:00 -5°C° 0 mm 6 mps 753 mmHg 46%
18:00 -5°C° 0.1 mm 6 mps 753 mmHg 47%
19:00 -4°C° 0.1 mm 6 mps 753 mmHg 48%
20:00 -4°C° 0.1 mm 6 mps 753 mmHg 48%
21:00 -4°C° 0.4 mm 6 mps 752 mmHg 58%
22:00 -6°C° 0.4 mm 7 mps 752 mmHg 68%
23:00 -6°C° 0.4 mm 7 mps 752 mmHg 77%

13 March, Saturday

Time Temperature Precipitation Wind Pressure Humidity
00:00 -6°C° 0.6 mm 7 mps 752 mmHg 83%
01:00 -6°C° 0.6 mm 7 mps 751 mmHg 89%
02:00 -6°C° 0.6 mm 7 mps 751 mmHg 95%
03:00 -5°C° 0.5 mm 6 mps 751 mmHg 96%
04:00 -4°C° 0.5 mm 6 mps 750 mmHg 97%
05:00 -4°C° 0.5 mm 6 mps 750 mmHg 97%
06:00 -2°C° 0.3 mm 5 mps 750 mmHg 97%
07:00 -1°C° 0.3 mm 5 mps 750 mmHg 96%
08:00 -1°C° 0.3 mm 5 mps 751 mmHg 96%
09:00 0°C° 0 mm 5 mps 751 mmHg 97%
10:00 0°C° 0 mm 5 mps 751 mmHg 97%
11:00 0°C° 0 mm 5 mps 751 mmHg 98%
12:00 +1°C° 0 mm 5 mps 751 mmHg 96%
13:00 +1°C° 0 mm 4 mps 751 mmHg 95%
14:00 +3°C° 0 mm 3 mps 751 mmHg 93%
15:00 +2°C° 0 mm 3 mps 751 mmHg 93%
16:00 +2°C° 0 mm 3 mps 751 mmHg 92%
17:00 +3°C° 0 mm 2 mps 751 mmHg 92%
18:00 +3°C° 0 mm 2 mps 751 mmHg 91%
19:00 +2°C° 0 mm 2 mps 751 mmHg 90%
20:00 +2°C° 0 mm 2 mps 751 mmHg 90%
21:00 +2°C° 0 mm 2 mps 751 mmHg 90%
22:00 +1°C° 0 mm 2 mps 751 mmHg 90%
23:00 +1°C° 0 mm 2 mps 751 mmHg 90%
Show more

We Need Your Consent

Meteoprog and our Service Providers may store and access personal data such as cookies, device identifiers or other similar technologies on your device and process such data to personalise content and ads, as well as provide social media features and to analyse the traffic.

  • Store and/or access information on your device

    Cookies, device identifiers or other information can be stored or accessed on your device for the purposes indicated above.

  • Personalised ads and content, ad and content measurement, audience insights, and products development

    Ads and content can be personalised based on a profile. More data can be added to better personalise ads and content. Ad and content performance can be measured. Insights about the audience who saw the ads and content can be derived. Such data can be used to develop or improve user’s experience, systems and software.

By clicking ‘I Agree’ you will allow the use of indicated cookies, device identifiers, web beacons or other similar technologies. Your settings can be changed in the browser on your device.

For certain purposes, legitimate interests may be relied on, rather than consent. You can read more about this in our Privacy and Cookie Policy.